TimeCDT,TemperatureF,Dew PointF,Humidity,Sea Level PressureIn,VisibilityMPH,Wind Direction,Wind SpeedMPH,Gust SpeedMPH,PrecipitationIn,Events,Conditions,WindDirDegrees,DateUTC
12:52 AM,37.0,33.1,86,30.01,4.0,ENE,10.4,-,0.06,Rain,Rain,60,2013-03-17 05:52:00
1:49 AM,37.4,35.6,93,30.03,4.0,North,4.6,-,0.08,Rain,Light Rain,10,2013-03-17 06:49:00
1:52 AM,37.9,35.1,89,30.04,5.0,North,4.6,-,0.09,Rain,Light Rain,10,2013-03-17 06:52:00
2:07 AM,37.4,35.6,93,30.04,3.0,NNE,4.6,-,0.03,Rain,Rain,20,2013-03-17 07:07:00
2:35 AM,37.4,35.6,93,30.03,4.0,NNE,8.1,-,0.07,Rain,Rain,20,2013-03-17 07:35:00
2:43 AM,37.4,35.6,93,30.02,4.0,NE,10.4,-,0.07,Rain,Light Rain,40,2013-03-17 07:43:00
2:52 AM,37.9,35.1,89,30.05,5.0,NNE,8.1,-,0.08,Rain,Light Rain,20,2013-03-17 07:52:00
3:16 AM,37.4,35.6,93,30.04,4.0,NNE,8.1,-,0.02,Rain,Light Rain,20,2013-03-17 08:16:00
3:52 AM,37.0,34.0,89,30.04,3.0,NNE,10.4,-,0.08,Rain,Rain,30,2013-03-17 08:52:00
4:14 AM,35.6,33.8,93,30.03,4.0,NE,11.5,18.4,0.04,Rain,Light Rain,40,2013-03-17 09:14:00
4:23 AM,35.6,33.8,93,30.03,4.0,NNE,11.5,-,0.05,Rain,Rain,30,2013-03-17 09:23:00
4:44 AM,35.6,33.8,93,30.04,4.0,NNE,10.4,-,0.07,Rain,Light Rain,30,2013-03-17 09:44:00
4:52 AM,36.0,33.1,89,30.05,4.0,NNE,12.7,-,0.08,Rain,Light Rain,20,2013-03-17 09:52:00
5:32 AM,35.6,33.8,93,30.05,3.0,NE,10.4,-,0.03,Rain,Light Rain,40,2013-03-17 10:32:00
5:52 AM,36.0,34.0,93,30.04,4.0,ENE,9.2,-,0.04,Rain,Light Rain,70,2013-03-17 10:52:00
6:06 AM,35.6,33.8,93,30.04,5.0,NE,12.7,-,0.00,Rain,Light Rain,40,2013-03-17 11:06:00
6:21 AM,35.6,33.8,93,30.05,6.0,NE,11.5,19.6,0.01,Rain,Light Rain,40,2013-03-17 11:21:00
6:41 AM,35.6,32.0,87,30.06,7.0,NE,11.5,20.7,0.02,Rain,Light Rain,40,2013-03-17 11:41:00
6:52 AM,35.1,33.1,92,30.07,4.0,NNE,9.2,-,0.04,Rain,Rain,30,2013-03-17 11:52:00
7:03 AM,35.6,33.8,93,30.05,4.0,NE,12.7,-,0.02,Rain,Rain,50,2013-03-17 12:03:00
7:11 AM,35.6,33.8,93,30.06,3.0,NNE,8.1,-,0.05,Rain,Rain,30,2013-03-17 12:11:00
7:18 AM,35.6,33.8,93,30.03,4.0,ENE,11.5,-,0.06,Rain,Rain,70,2013-03-17 12:18:00
7:26 AM,35.6,33.8,93,30.05,4.0,NE,8.1,-,0.08,Rain,Rain,40,2013-03-17 12:26:00
7:33 AM,35.6,33.8,93,30.05,4.0,NNE,5.8,-,0.09,Rain,Light Rain,30,2013-03-17 12:33:00
7:52 AM,35.1,33.1,92,30.06,4.0,NE,10.4,-,0.12,Rain,Rain,40,2013-03-17 12:52:00
8:05 AM,35.6,32.0,87,30.06,2.0,NNE,9.2,-,0.03,Rain,Rain,30,2013-03-17 13:05:00
8:21 AM,35.6,32.0,87,30.06,4.0,NE,8.1,-,0.07,Rain,Rain,40,2013-03-17 13:21:00
8:32 AM,33.8,32.0,93,30.06,2.5,NE,11.5,-,0.12,Rain,Rain,40,2013-03-17 13:32:00
8:52 AM,34.0,32.0,92,30.07,2.5,NE,10.4,-,0.18,Rain,Rain,40,2013-03-17 13:52:00
9:18 AM,35.6,32.0,87,30.05,3.0,NE,10.4,-,0.07,Rain,Light Rain,40,2013-03-17 14:18:00
9:52 AM,35.1,33.1,92,30.06,4.0,NE,8.1,-,0.09,Rain,Rain,40,2013-03-17 14:52:00
11:01 AM,35.6,33.8,93,30.08,3.0,ENE,5.8,-,0.03,Rain,Rain,60,2013-03-17 16:01:00
11:52 AM,36.0,33.1,89,30.04,4.0,ENE,12.7,-,0.12,Rain,Light Rain,60,2013-03-17 16:52:00
12:52 PM,37.9,35.1,89,30.01,10.0,ENE,10.4,-,0.01,,Overcast,70,2013-03-17 17:52:00
1:52 PM,39.0,36.0,89,29.98,8.0,ENE,11.5,18.4,0.01,Rain,Light Rain,60,2013-03-17 18:52:00
2:52 PM,39.9,37.0,89,29.96,8.0,ENE,6.9,-,0.00,Rain,Light Rain,70,2013-03-17 19:52:00
3:23 PM,39.2,37.4,93,29.94,2.5,NE,9.2,-,0.05,Rain,Light Rain,50,2013-03-17 20:23:00
3:31 PM,39.2,37.4,93,29.93,5.0,NE,10.4,-,0.06,Rain,Light Rain,50,2013-03-17 20:31:00
3:52 PM,39.9,37.0,89,29.93,8.0,NE,11.5,-,0.06,Rain,Light Rain,40,2013-03-17 20:52:00
4:52 PM,39.0,37.0,93,29.94,5.0,NNE,8.1,-,0.02,Rain,Light Rain,30,2013-03-17 21:52:00
5:05 PM,39.2,37.4,93,29.91,1.8,ENE,10.4,-,0.05,Rain,Heavy Rain,70,2013-03-17 22:05:00
5:22 PM,39.2,37.4,93,29.90,3.0,ENE,11.5,-,0.12,Rain,Light Rain,70,2013-03-17 22:22:00
5:34 PM,39.2,37.4,93,29.87,2.0,ENE,11.5,-,0.15,Rain,Rain,70,2013-03-17 22:34:00
5:45 PM,39.2,37.4,93,29.85,4.0,East,16.1,20.7,0.16,Rain,Light Rain,80,2013-03-17 22:45:00
5:52 PM,39.0,37.0,93,29.89,3.0,East,8.1,20.7,0.17,Rain,Rain,80,2013-03-17 22:52:00
6:52 PM,39.9,37.0,89,29.86,4.0,ENE,10.4,-,0.04,Rain,Light Rain,60,2013-03-17 23:52:00
7:03 PM,39.2,37.4,93,29.84,2.5,ENE,10.4,-,0.06,Rain,Heavy Rain,70,2013-03-18 00:03:00
7:12 PM,39.2,37.4,93,29.82,4.0,ENE,16.1,20.7,0.07,Rain,Light Rain,60,2013-03-18 00:12:00
7:36 PM,39.2,37.4,93,29.85,1.8,NE,10.4,20.7,0.24,Rain,Heavy Rain,50,2013-03-18 00:36:00
7:44 PM,39.2,37.4,93,29.84,2.0,NE,9.2,-,0.29,Rain-Thunderstorm,Heavy Rain,50,2013-03-18 00:44:00
7:52 PM,39.0,37.0,93,29.87,3.0,North,8.1,-,0.31,Rain-Thunderstorm,Thunderstorms and Rain,350,2013-03-18 00:52:00
8:05 PM,39.2,35.6,87,29.84,2.5,ENE,10.4,-,0.05,Rain-Thunderstorm,Heavy Thunderstorms and Rain,60,2013-03-18 01:05:00
8:12 PM,39.2,35.6,87,29.84,2.5,NE,10.4,-,0.08,Rain-Thunderstorm,Rain,50,2013-03-18 01:12:00
8:19 PM,39.2,35.6,87,29.84,4.0,ENE,9.2,-,0.08,Rain-Thunderstorm,Light Rain,60,2013-03-18 01:19:00
8:46 PM,39.2,37.4,93,29.86,2.5,NE,9.2,-,0.13,Rain,Rain,50,2013-03-18 01:46:00
8:52 PM,39.0,36.0,89,29.86,3.0,NE,9.2,-,0.14,Rain,Light Rain,50,2013-03-18 01:52:00
9:10 PM,39.2,35.6,87,29.84,2.5,NE,10.4,-,0.01,Rain,Light Rain,50,2013-03-18 02:10:00
9:15 PM,37.4,35.6,93,29.85,3.0,NE,10.4,-,0.02,Rain,Light Rain,50,2013-03-18 02:15:00
9:32 PM,39.2,35.6,87,29.83,10.0,East,12.7,18.4,0.02,,Overcast,80,2013-03-18 02:32:00
9:52 PM,39.0,36.0,89,29.86,9.0,NE,8.1,-,0.02,,Overcast,50,2013-03-18 02:52:00
10:49 PM,37.4,35.6,93,29.84,6.0,NNE,11.5,19.6,0.02,Rain-Thunderstorm,Light Rain,20,2013-03-18 03:49:00
10:52 PM,37.9,36.0,93,29.86,6.0,NNE,9.2,19.6,0.02,Rain-Thunderstorm,Light Rain,30,2013-03-18 03:52:00
11:05 PM,37.4,35.6,93,29.79,6.0,ESE,20.7,25.3,0.03,Rain,Light Rain,110,2013-03-18 04:05:00
11:13 PM,39.2,35.6,87,29.79,10.0,ESE,20.7,27.6,0.03,Rain,Light Rain,120,2013-03-18 04:13:00
11:16 PM,39.2,35.6,87,29.79,10.0,ESE,19.6,27.6,0.03,Rain-Thunderstorm,Light Rain,120,2013-03-18 04:16:00
11:26 PM,39.2,35.6,87,29.77,8.0,ENE,13.8,25.3,0.05,Rain-Thunderstorm,Rain,60,2013-03-18 04:26:00
11:52 PM,39.9,37.9,93,29.80,3.0,Variable,5.8,-,0.23,Rain-Thunderstorm,Thunderstorms and Rain,0,2013-03-18 04:52:00